This is the latest recevied weather packets stored in our database for station/object EA1IDU-12. If no packets are shown the sender has not sent any weather packets the latest 10 day(s).
| Time | Temp. | Humidity | Pressure | Rain* | Wind** | Luminosity | Snow |
|---|---|---|---|---|---|---|---|
| 1788161101 | 16.11° C | 69% | 1031.4 hPa | - | - | - | - |
| 1788160201 | 15.56° C | 71% | 1031.3 hPa | - | - | - | - |
| 1788159301 | 14.44° C | 71% | 1031.2 hPa | - | - | - | - |
| 1788158401 | 13.89° C | 72% | 1031.2 hPa | - | - | - | - |
| 1788157501 | 12.78° C | 73% | 1031.1 hPa | - | - | - | - |
| 1788156601 | 11.67° C | 73% | 1031.1 hPa | - | - | - | - |
| 1788155700 | 11.11° C | 72% | 1030.8 hPa | - | - | - | - |
| 1788154800 | 11.11° C | 72% | 1030.8 hPa | - | - | - | - |
| 1788153900 | 11.11° C | 72% | 1030.7 hPa | - | - | - | - |
| 1788153000 | 11.11° C | 71% | 1030.6 hPa | - | - | - | - |
| 1788152100 | 11.67° C | 71% | 1030.6 hPa | - | - | - | - |
| 1788151199 | 11.67° C | 70% | 1030.5 hPa | - | - | - | - |
| 1788150314 | 11.67° C | 70% | 1030.6 hPa | - | - | - | - |
| 1788149414 | 11.67° C | 69% | 1030.6 hPa | - | - | - | - |
| 1788148514 | 12.22° C | 69% | 1030.7 hPa | - | - | - | - |
| 1788147614 | 12.22° C | 69% | 1030.6 hPa | - | - | - | - |
| 1788146714 | 12.22° C | 68% | 1030.5 hPa | - | - | - | - |
| 1788145813 | 12.78° C | 68% | 1030.5 hPa | - | - | - | - |
| 1788144913 | 12.78° C | 67% | 1030.5 hPa | - | - | - | - |
| 1788144013 | 12.78° C | 67% | 1030.4 hPa | - | - | - | - |
| 1788143113 | 13.33° C | 67% | 1030.5 hPa | - | - | - | - |
| 1788142213 | 13.89° C | 66% | 1030.4 hPa | - | - | - | - |
| 1788141313 | 14.44° C | 66% | 1030.6 hPa | - | - | - | - |
| 1788140412 | 14.44° C | 67% | 1030.4 hPa | - | - | - | - |
| 1788139512 | 15° C | 66% | 1030.5 hPa | - | - | - | - |
* Rain since midnight (hover to see other rain measurements)
** Current wind speed in m/s (hover to see current wind gust speed)